SCP
1 2 2 3 3 2 0 0 0 0 0 0 0 0 0 0 0 0 1 1 1 1 1 2 3 3 3 2 2 2 2 2 3 3 2 2 2 2 3 3 3 2 2 2 1 1 1 2 2
2 2 2 3 2 1 0 0 0 0 0 0 0 0 0 0 0 0 0 1 1 1 1 2 3 3 3 3 2 2 2 2 3 3 2 2 2 2 2 3 2 2 2 2 1 1 2 2 2
3 3 3 2 2 1 0 0 0 0 0 0 0 0 0 0 0 0 0 0 1 1 1 2 2 3 3 3 2 2 2 2 2 2 2 2 2 2 2 2 2 2 2 2 2 1 2 2 2
3 3 3 2 1 0 0 0 0 0 0 0 0 0 1 1 0 0 0 0 1 1 2 2 2 3 3 3 2 2 1 2 2 2 2 2 2 2 2 2 1 1 1 2 2 2 2 2 2
3 3 2 1 1 0 0 0 0 0 0 0 0 1 1 1 0 0 0 1 1 1 1 2 3 3 3 2 2 1 1 1 2 2 2 2 2 2 1 1 1 1 1 2 2 2 2 2 2
3 2 1 1 0 0 0 0 0 0 0 0 1 1 1 0 0 0 0 1 1 1 1 2 2 2 2 2 1 1 1 1 1 1 1 2 2 1 1 2 2 2 2 2 2 2 2 2 2
3 2 1 0 0 0 0 0 1 1 0 0 1 1 1 1 1 0 1 1 1 1 1 1 1 1 2 1 1 1 1 1 1 1 1 2 2 2 2 2 2 2 2 2 2 2 2 2 2
3 2 1 0 0 0 0 1 1 1 1 1 1 1 1 1 1 1 1 1 0 0 1 1 1 1 1 1 1 1 1 1 1 1 1 2 2 2 2 2 2 2 2 2 2 1 2 2 2
3 2 1 0 0 0 1 1 1 1 1 1 1 1 1 1 1 1 1 1 1 1 1 1 1 1 1 1 1 1 1 1 1 1 1 2 2 2 2 2 2 2 2 2 1 1 1 1 1
2 2 1 0 0 0 1 1 1 0 0 1 1 1 1 1 1 1 1 1 1 1 1 1 1 1 1 1 1 2 2 2 2 1 1 2 2 1 1 1 2 2 1 1 1 1 1 1 1
2 1 0 0 0 0 1 1 1 0 0 1 1 1 1 1 1 1 1 1 1 1 1 1 1 1 1 2 2 2 2 2 2 2 1 1 1 1 1 1 1 1 1 1 1 1 1 1 1
1 1 0 0 0 0 1 1 1 0 1 1 1 1 1 1 1 1 1 1 1 1 1 1 1 2 2 2 3 3 2 2 2 2 2 1 1 1 1 1 1 1 1 1 1 1 1 1 1
0 0 0 0 0 1 1 1 1 0 1 1 1 1 1 1 1 1 1 1 1 1 1 2 3 4 4 3 3 3 3 2 2 2 2 2 2 1 1 1 1 1 1 1 1 1 1 1 1
0 0 0 0 0 1 1 1 1 1 1 1 1 1 1 1 1 2 1 1 1 1 2 3 4 5 4 3 2 2 3 3 2 3 3 3 2 2 1 1 1 1 1 1 1 1 1 1 1
0 0 0 0 0 1 1 1 1 1 1 1 2 2 2 2 2 2 2 2 2 2 3 4 5 5 4 3 2 2 3 3 3 3 4 4 3 2 2 1 1 1 1 1 1 1 1 1 1
0 0 0 0 0 1 1 1 1 1 1 2 3 3 3 3 3 3 3 3 2 3 4 4 4 4 4 2 2 2 2 3 3 3 4 5 4 2 2 2 1 1 1 1 1 1 1 1 1
0 0 0 0 0 1 1 1 1 2 2 3 4 4 3 2 2 3 3 3 3 3 4 4 4 4 4 3 2 2 3 3 2 3 4 5 4 3 2 2 2 2 1 1 1 1 1 1 1
0 0 0 0 0 1 1 1 1 2 3 3 4 3 2 2 2 3 3 3 3 4 5 5 4 4 4 4 3 3 3 3 3 3 5 5 4 3 3 2 3 2 2 1 1 1 1 1 1
0 0 0 0 0 1 2 2 1 2 2 3 3 3 2 2 3 3 3 3 3 4 5 5 4 4 4 4 4 4 4 4 4 4 5 6 5 4 3 3 3 3 2 2 2 2 1 1 1
0 0 0 0 0 1 2 2 2 2 2 3 3 2 2 2 4 4 4 4 3 4 5 5 4 4 4 4 4 4 4 4 4 5 6 7 7 5 4 4 4 3 2 2 2 2 2 1 1
0 0 0 0 0 1 2 3 2 2 3 3 2 2 2 2 3 4 4 4 4 4 4 4 4 4 4 4 4 4 4 4 5 5 6 8 8 6 5 4 4 4 3 3 3 3 2 2 1
0 0 0 0 0 1 2 3 3 3 3 2 2 1 1 2 3 4 5 5 5 4 3 3 4 4 4 4 4 4 4 4 4 5 6 7 7 6 5 5 5 5 4 4 3 3 3 2 2
0 0 0 0 0 1 1 3 4 4 3 2 2 1 1 2 3 4 6 7 6 4 4 4 5 5 5 5 4 4 5 5 5 5 5 6 6 5 5 5 6 5 5 4 4 4 3 3 2
0 0 0 0 0 0 0 2 5 5 4 3 2 1 1 2 3 5 7 8 7 5 5 5 6 6 5 5 5 5 5 6 5 5 5 5 5 5 5 6 6 6 5 5 5 5 4 3 2
0 0 0 0 0 0 0 2 4 5 5 3 2 1 1 2 3 6 8 9 8 6 6 7 8 7 6 5 5 6 6 6 6 5 5 5 5 5 5 6 7 7 6 6 5 5 4 3 3
0 0 0 0 0 0 1 3 4 5 5 3 2 1 1 2 5 8 9 8 8 7 7 9 9 8 7 6 6 6 6 6 5 4 4 4 4 4 5 6 8 9 7 6 6 5 4 3 3
0 0 0 0 0 0 1 3 4 4 3 2 1 1 2 4 7 9 8 7 7 7 9 11 12 11 9 7 7 7 7 6 5 4 3 3 3 3 4 6 9 11 10 8 6 6 4 4 3
0 0 0 0 0 0 1 3 3 2 2 1 1 2 4 6 7 7 6 6 6 8 10 13 15 14 11 8 7 8 8 8 7 5 4 4 4 3 4 5 9 13 12 10 8 7 5 5 4
0 0 0 0 0 0 1 2 3 2 2 2 2 3 5 5 5 4 5 6 8 9 11 13 16 16 12 9 8 8 8 8 8 7 6 5 4 4 4 6 9 13 14 11 9 7 6 5 5
0 0 0 0 0 0 1 2 3 3 2 2 3 4 5 5 4 4 6 8 9 11 11 12 15 16 12 9 9 9 9 9 9 9 8 5 5 5 5 7 10 13 15 12 10 7 6 6 6
Wind_Speed
9 11 9 5 3 1 8 11 12 12 12 11 11 12 15 15 11 9 6 8 11 12 11 10 10 10 11 11 11 11 11 11 11 10 10 10 10 10 10 10 10 11 11 11 11 11 10 10 9
9 10 8 4 2 4 10 11 13 12 10 9 11 14 15 14 12 9 7 8 11 12 10 10 10 11 11 11 11 11 11 11 11 10 9 10 10 10 9 9 10 10 10 11 10 10 10 10 9
11 12 5 3 2 8 10 10 11 11 10 10 12 14 12 10 10 7 7 8 11 11 11 11 11 11 11 11 11 10 10 10 10 10 10 9 9 9 9 9 10 10 10 10 10 10 10 9 8
8 6 5 1 7 11 10 9 9 10 11 11 11 12 12 11 9 8 8 9 11 11 11 11 11 12 11 11 10 10 10 9 9 9 9 9 9 9 9 9 9 9 10 10 10 10 9 9 7
8 4 3 2 8 11 11 11 11 11 11 13 14 14 12 11 10 9 8 9 10 11 11 10 11 12 12 11 10 10 9 9 8 9 8 8 8 9 9 9 9 9 9 9 9 9 9 8 7
4 3 2 5 10 11 10 10 11 12 11 11 13 13 10 8 9 8 9 9 9 10 11 11 11 12 11 10 10 10 9 8 8 8 8 8 8 8 9 9 9 9 9 9 9 9 9 8 7
4 2 2 5 8 10 10 10 10 11 11 10 12 12 9 8 7 8 9 9 9 10 10 10 10 10 10 10 10 10 9 8 8 8 7 8 8 8 8 9 9 10 9 9 9 9 8 7 6
3 1 3 6 8 10 10 11 11 11 11 10 9 10 9 8 7 9 9 9 8 8 8 8 9 9 9 9 9 10 9 8 7 7 7 7 8 8 8 9 9 9 9 9 8 8 8 7 6
4 1 3 6 7 8 9 11 10 9 12 14 14 14 13 10 9 9 8 8 7 7 6 7 7 7 8 9 10 10 10 9 7 6 7 6 4 5 6 8 10 9 9 8 8 8 7 6 6
0 2 4 6 7 8 9 10 8 8 11 13 14 14 13 10 9 9 8 8 7 6 6 5 5 5 6 6 7 5 6 6 4 3 4 3 3 4 6 9 10 9 8 8 8 8 7 5 3
1 2 4 6 7 8 8 9 7 8 10 12 13 13 11 10 9 8 8 9 8 7 6 6 5 4 5 4 4 3 3 4 4 3 3 2 2 4 5 4 6 6 6 5 6 6 4 3 2
1 3 4 6 6 7 7 8 8 9 10 12 13 13 11 9 9 8 8 8 8 7 7 6 6 5 5 4 3 3 3 3 3 4 2 2 2 2 3 2 3 3 2 3 3 2 2 2 2
1 3 4 5 6 7 7 7 9 10 12 13 12 12 11 9 9 8 8 9 8 8 8 7 7 5 4 3 1 3 3 3 4 3 3 2 2 3 2 2 2 2 2 2 2 2 2 2 2
1 1 3 4 6 5 7 7 7 8 11 12 11 10 10 9 9 9 7 8 8 7 8 7 7 6 4 3 1 1 3 3 3 3 4 3 3 3 2 2 1 2 2 2 2 2 2 2 1
2 2 2 4 6 5 7 6 5 7 10 12 11 10 10 9 9 8 8 7 8 7 7 6 7 6 4 2 1 2 2 4 3 3 4 3 3 3 2 2 1 1 2 3 2 2 2 2 2
6 5 4 4 4 6 4 5 6 7 9 11 11 10 9 8 9 8 8 7 8 8 6 4 5 7 5 2 1 1 2 3 2 2 3 4 3 3 1 2 2 2 2 1 2 2 1 2 2
7 6 4 3 3 5 4 6 7 8 9 10 10 10 10 9 8 8 8 8 8 7 6 4 3 5 4 3 1 2 2 2 1 2 3 3 3 2 2 1 1 2 2 2 2 2 1 1 2
4 3 1 2 2 2 4 6 8 9 9 10 10 10 10 11 9 9 9 9 8 8 6 5 4 3 3 3 2 1 1 2 2 2 2 3 2 1 1 1 1 1 1 1 1 1 1 1 2
6 4 3 2 3 4 3 4 6 8 8 9 8 10 10 10 11 10 9 9 9 8 7 5 4 4 2 1 1 1 1 1 2 3 3 2 2 1 0 0 1 1 1 1 1 1 1 1 1
8 6 4 3 2 2 2 2 3 5 6 8 9 9 11 11 10 9 9 9 9 8 7 6 5 4 3 2 1 1 1 1 2 2 3 2 1 2 2 1 1 1 1 1 1 1 1 1 1
9 7 5 4 4 3 1 2 3 5 6 8 9 9 10 11 12 11 10 9 9 9 8 6 5 5 3 3 2 1 2 1 1 2 2 2 1 1 0 1 1 0 1 1 2 2 2 2 2
8 7 6 6 6 5 4 3 5 6 7 9 9 9 10 10 11 12 11 10 10 10 9 7 6 5 4 2 2 2 2 2 1 1 2 1 1 1 1 1 0 1 0 0 2 1 1 2 2
8 7 8 7 7 9 7 4 4 7 7 8 9 10 10 11 12 12 11 10 10 10 9 8 7 5 4 3 2 1 1 1 1 1 2 2 2 2 1 1 1 0 1 1 1 0 1 2 2
8 9 8 7 7 9 7 5 3 5 6 7 8 9 10 11 11 12 12 10 9 9 9 9 8 6 5 4 3 2 1 1 1 0 2 2 2 2 2 2 1 1 1 1 1 1 2 2 2
9 8 5 5 6 7 3 2 1 5 5 6 7 8 10 10 10 11 12 11 9 9 9 9 9 7 6 5 3 3 2 1 1 2 2 2 1 1 1 1 1 1 1 1 1 1 2 2 2
8 8 6 7 6 3 1 0 1 2 5 5 8 8 9 10 10 11 10 10 9 9 8 8 9 7 6 5 4 3 2 2 2 3 1 1 1 1 2 2 2 1 1 2 1 1 2 1 1
9 8 9 9 9 7 2 3 3 3 4 5 7 8 8 8 9 10 10 10 10 9 8 8 8 7 6 6 5 4 3 2 2 1 1 1 1 1 2 2 2 2 2 2 1 1 1 1 1
10 8 6 7 5 6 3 2 3 5 4 4 5 5 6 7 9 9 10 10 9 9 8 8 8 6 5 5 4 4 4 2 1 1 1 1 1 2 1 0 1 1 1 1 1 1 1 1 1
8 8 6 6 6 5 5 1 4 4 5 5 5 6 5 4 6 7 7 7 7 8 8 8 7 7 5 5 4 3 3 3 2 1 1 1 1 1 1 1 1 1 1 1 2 2 1 2 2
9 9 7 6 5 6 5 2 2 4 4 5 6 7 5 5 6 7 7 6 6 6 7 7 6 7 6 5 4 3 3 3 3 2 1 2 2 2 2 2 2 2 2 2 2 2 2 2 2
Wind_Direction
207 217 221 237 243 243 50 55 56 53 57 54 52 62 60 50 51 76 88 85 94 99 103 100 95 94 94 95 95 96 99 100 100 103 105 105 104 109 112 118 124 127 131 129 126 129 128 127 125
233 231 229 243 257 64 60 55 60 60 67 69 67 67 69 65 69 86 91 90 94 96 98 96 100 99 97 97 96 96 99 101 102 101 102 104 106 107 113 121 126 130 132 133 132 136 132 130 130
251 253 257 234 42 61 63 59 66 74 71 66 70 62 60 66 72 86 95 94 93 96 98 101 105 103 101 100 99 97 96 97 100 100 101 104 106 107 111 123 128 131 133 137 139 138 137 134 133
248 232 235 306 50 67 72 75 74 74 68 65 71 74 69 67 81 91 97 95 96 99 101 108 112 110 107 102 100 100 99 99 100 102 104 107 109 111 112 118 125 129 133 137 140 141 139 135 138
243 271 256 80 70 69 67 67 69 71 68 72 79 86 82 76 85 96 94 92 98 104 109 115 116 115 114 111 108 105 102 102 105 105 107 109 112 116 116 117 129 135 136 139 141 142 142 142 148
263 262 341 60 75 72 69 67 69 74 76 86 92 93 91 91 88 92 94 93 101 110 115 122 122 119 119 120 118 115 111 109 110 112 111 113 114 117 120 121 121 125 128 135 139 141 140 144 152
257 313 43 65 73 75 73 71 66 76 74 77 94 98 102 98 98 98 96 96 98 106 119 133 138 132 128 125 123 124 123 123 125 123 124 124 122 122 126 125 124 126 126 130 136 141 144 150 161
230 302 9 64 72 74 77 80 71 71 75 79 87 101 116 116 117 108 100 92 91 99 112 127 134 139 143 137 137 133 136 138 142 143 142 141 137 135 137 131 131 132 135 140 144 149 154 165 174
265 318 24 57 70 80 81 85 85 86 85 78 77 97 115 124 122 112 103 97 93 94 110 122 130 138 147 145 144 149 150 156 157 163 168 166 162 147 148 133 138 142 145 149 154 160 167 171 186
291 12 39 58 78 83 82 85 95 103 96 95 93 100 116 123 123 116 112 106 106 103 105 103 107 122 137 133 137 153 154 154 165 150 148 156 151 135 133 137 148 151 155 158 167 176 176 181 188
93 50 50 68 77 87 87 87 81 91 94 107 113 118 122 127 127 115 110 109 107 106 100 101 94 101 115 116 130 142 138 136 138 123 125 136 133 134 132 147 150 158 164 172 167 178 183 178 183
54 89 84 79 79 87 89 88 86 82 98 110 120 125 128 131 123 116 110 108 106 105 104 96 90 85 85 91 117 127 116 123 128 126 114 107 102 115 119 132 145 156 158 160 163 173 167 171 180
24 82 94 98 94 88 92 91 94 98 109 114 121 125 130 128 116 111 107 111 112 110 107 99 93 83 80 73 73 105 109 110 116 120 118 103 105 103 111 135 132 138 145 163 169 165 152 159 189
20 80 102 112 113 125 112 104 106 112 122 126 127 127 127 122 122 121 119 114 111 108 107 109 109 103 102 104 97 98 109 112 109 115 112 108 110 112 122 126 114 120 150 165 163 163 151 169 191
255 201 170 159 154 141 110 86 98 122 133 134 133 132 129 129 126 129 128 126 119 115 112 122 127 118 118 123 132 126 114 116 112 117 118 114 111 123 129 131 134 156 171 160 165 172 152 167 191
253 235 208 170 156 139 136 127 138 152 151 141 141 139 135 134 134 134 133 128 122 122 116 127 123 126 129 118 81 74 87 95 102 112 116 116 117 124 123 138 160 180 167 159 168 168 178 178 185
250 234 202 153 156 159 161 137 154 166 155 147 148 147 146 145 144 138 137 131 124 120 122 121 99 115 128 131 122 123 103 95 109 113 114 120 127 136 144 146 180 198 175 178 184 147 174 191 194
272 273 237 159 167 176 153 146 159 167 159 156 158 155 154 155 155 146 144 139 133 128 128 131 129 117 128 137 141 131 107 130 127 107 111 119 132 136 149 162 196 212 152 141 119 139 196 223 235
281 280 278 234 197 192 165 163 167 168 166 156 160 159 156 155 152 149 150 147 145 138 137 138 141 137 137 128 144 153 149 153 138 136 122 116 140 154 189 123 199 194 182 167 155 165 230 238 233
271 269 260 252 242 204 161 164 170 169 172 159 164 159 158 156 148 147 154 156 151 148 148 145 153 154 158 151 163 173 169 167 146 112 110 130 163 172 184 160 220 207 174 163 183 213 237 260 234
274 274 283 282 290 285 178 224 209 169 173 165 163 162 158 155 155 155 167 163 159 156 157 160 158 154 166 172 179 164 148 158 108 129 141 163 171 162 333 129 276 288 177 177 195 222 225 254 258
266 278 285 284 274 264 233 222 192 184 191 175 166 162 159 155 158 161 167 166 165 162 161 154 150 152 160 175 192 189 174 170 171 142 130 146 215 201 183 136 154 309 330 193 228 199 252 256 271
278 288 284 287 281 274 244 242 189 182 187 180 169 165 161 159 164 164 163 165 166 165 161 155 149 153 160 182 199 210 206 185 147 122 134 177 190 194 164 158 170 240 268 236 250 232 275 268 271
268 270 270 264 261 267 256 243 184 177 181 167 158 157 155 157 161 157 157 158 163 163 161 152 146 153 165 181 191 182 228 242 111 154 173 207 190 181 176 180 189 236 259 251 245 236 238 263 294
248 260 268 263 239 249 255 257 150 160 172 163 149 150 152 155 156 154 155 159 162 162 159 152 151 161 172 179 188 178 205 216 197 225 224 227 218 177 170 188 175 215 238 248 234 233 249 249 267
257 260 261 275 277 272 210 110 88 141 150 151 145 151 159 162 156 154 156 155 158 160 157 152 154 165 172 176 183 179 188 217 218 221 254 248 267 188 165 170 176 203 230 249 216 243 236 232 248
252 270 277 274 277 283 228 134 161 182 163 144 136 147 159 154 144 151 153 156 159 161 157 157 153 163 173 179 175 179 192 225 241 208 235 268 268 233 153 170 190 202 215 244 215 234 251 229 239
248 266 281 281 289 292 287 177 169 165 142 122 124 125 133 144 144 154 157 160 160 160 155 151 150 161 167 172 185 183 189 196 224 265 235 297 339 346 358 304 241 222 214 224 230 254 236 232 248
233 245 263 283 291 284 286 318 133 149 140 136 129 117 118 151 144 143 142 148 154 156 153 154 152 157 168 177 183 179 171 180 192 212 249 247 281 282 288 296 284 249 221 221 220 242 240 232 252
251 250 251 260 265 268 269 271 116 122 132 120 123 130 145 142 131 132 140 147 150 150 149 149 156 163 170 172 169 168 169 179 194 201 216 223 232 244 240 244 260 259 243 226 227 240 250 232 238